This demonstration page uses our WeatherBlox Daily Observations layout. Learn more.

38.88101, -77.10428

Hourly Observations for December 17, 2018

Temp ( °F °C ) Dew Point ( °F °C ) Humidity (%) Winds ( mph kmh ) Pressure ( in mb ) Visibility ( mi km ) Precip ( " mm )
12:52 am 00:52 Cloudy 45 7.2 37 2.8 74 74 WNW 6 9 29.91 1013 10 16.0934 0 0
1:52 am 01:52 Cloudy 46 7.8 38 3.3 73 73 W 9 15 29.91 1013 10 16.0934 0 0
2:52 am 02:52 Partly Cloudy 44 6.7 37 2.8 76 76 W 5 7 29.91 1013 10 16.0934 0 0
3:52 am 03:52 Mostly Clear 42 5.6 37 2.8 82 82 SSW 5 7 29.9 1012 10 16.0934 0 0
4:52 am 04:52 Mostly Clear 45 7.2 36 2.2 71 71 WNW 7 11 29.88 1012 10 16.0934 0 0
5:52 am 05:52 Mostly Cloudy 45 7.2 35 1.7 68 68 W 8 13 29.88 1012 10 16.0934 0 0
6:52 am 06:52 Mostly Cloudy 46 7.8 33 0.6 61 61 W 10 17 29.89 1012 10 16.0934 0 0
7:52 am 07:52 Mostly Cloudy 47 8.3 31 -0.6 54 54 WNW 12 19 29.91 1013 10 16.0934 0 0
8:52 am 08:52 Mostly Cloudy 48 8.9 33 0.6 56 56 WSW 8 13 29.91 1013 10 16.0934 0 0
9:52 am 09:52 Mostly Cloudy 50 10 32 0 50 50 W 5 7 29.91 1013 10 16.0934 0 0
10:52 am 10:52 Mostly Cloudy 51 10.6 32 0 48 48 WSW 13 20 29.88 1012 10 16.0934 0 0
11:52 am 11:52 Mostly Cloudy 52 11.1 34 1.1 50 50 SSW 12 19 29.85 1011 10 16.0934 0 0
12:52 pm 12:52 Cloudy 54 12.2 33 0.6 45 45 WSW 8 13 29.83 1010 10 16.0934 0 0
1:52 pm 13:52 Cloudy 56 13.3 35 1.7 46 46 W 13 20 29.81 1010 10 16.0934 0 0
2:52 pm 14:52 Cloudy 58 14.4 31 -0.6 36 36 W 16 26 29.82 1010 10 16.0934 0 0
3:52 pm 15:52 Mostly Cloudy 56 13.3 26 -3.3 32 32 WNW 17 28 29.83 1010 10 16.0934 0 0
4:52 pm 16:52 Mostly Cloudy 52 11.1 27 -2.8 38 38 NNW 13 20 29.86 1011 10 16.0934 0 0
5:52 pm 17:52 Mostly Cloudy 50 10 26 -3.3 39 39 NNW 16 26 29.9 1013 10 16.0934 0 0
6:52 pm 18:52 Partly Cloudy 48 8.9 28 -2.2 46 46 N 14 22 29.93 1014 10 16.0934 0 0
7:52 pm 19:52 Partly Cloudy 45 7.2 27 -2.8 49 49 NNW 14 22 29.96 1014 10 16.0934 0 0
8:52 pm 20:52 Partly Cloudy 44 6.7 26 -3.3 49 49 NNW 13 20 29.97 1015 10 16.0934 0 0
9:52 pm 21:52 Mostly Cloudy 44 6.7 25 -3.9 47 47 NW 17 28 29.98 1015 10 16.0934 0 0
10:52 pm 22:52 Mostly Cloudy 43 6.1 25 -3.9 49 49 NW 17 28 29.98 1015 10 16.0934 0 0
11:52 pm 23:52 Mostly Cloudy 42 5.6 25 -3.9 51 51 NNW 10 17 29.99 1016 10 16.0934 0 0

Powered by AerisWeather